QPF
0.01 0.02 0.01 0.02 0.02 0.03 0.04 0.07 0.13 0.15 0.09 0.07 0.06 0.05 0.03 0.02 0.02 0.01 0.02 0.02 0.03 0.05 0.06 0.05 0.04 0.04 0.03 0.02 0.02 0.02 0.02 0.02 0.02 0.03 0.04 0.05 0.05 0.04 0.04 0.04 0.05 0.05 0.06
0.01 0.01 0.01 0.01 0.02 0.02 0.02 0.03 0.06 0.16 0.13 0.08 0.06 0.04 0.03 0.03 0.03 0.02 0.02 0.01 0.01 0.02 0.03 0.04 0.04 0.04 0.02 0.01 0.01 0.01 0.01 0.01 0.02 0.02 0.02 0.02 0.02 0.02 0.02 0.02 0.02 0.03 0.05
0.01 0.01 0.01 0.01 0.01 0.01 0.02 0.02 0.03 0.10 0.16 0.10 0.06 0.04 0.02 0.02 0.03 0.02 0.03 0.03 0.02 0.01 0.02 0.04 0.03 0.04 0.03 0.02 0.01 0.01 0.01 0.01 0.01 0.01 0.01 0.01 0.01 0.01 0.01 0.01 0.02 0.02 0.03
0.01 0.01 0.01 0.00 0.01 0.01 0.01 0.01 0.02 0.05 0.11 0.10 0.06 0.03 0.02 0.02 0.02 0.03 0.03 0.02 0.02 0.02 0.02 0.03 0.03 0.03 0.03 0.03 0.03 0.02 0.01 0.01 0.01 0.01 0.01 0.01 0.01 0.01 0.01 0.01 0.02 0.02 0.02
0.02 0.01 0.01 0.01 0.01 0.01 0.01 0.01 0.01 0.03 0.05 0.07 0.05 0.03 0.02 0.02 0.02 0.03 0.02 0.02 0.02 0.02 0.02 0.01 0.01 0.01 0.01 0.02 0.02 0.02 0.03 0.02 0.01 0.01 0.01 0.01 0.01 0.01 0.02 0.02 0.02 0.01 0.02
0.01 0.01 0.01 0.01 0.01 0.01 0.01 0.02 0.02 0.03 0.03 0.04 0.04 0.04 0.03 0.01 0.01 0.02 0.02 0.02 0.03 0.03 0.02 0.02 0.01 0.01 0.01 0.01 0.03 0.04 0.03 0.03 0.02 0.02 0.02 0.02 0.02 0.02 0.02 0.03 0.02 0.02 0.03
0.01 0.01 0.01 0.01 0.02 0.01 0.02 0.02 0.03 0.03 0.04 0.03 0.03 0.04 0.03 0.02 0.01 0.01 0.01 0.02 0.03 0.03 0.02 0.02 0.02 0.02 0.01 0.00 0.02 0.03 0.03 0.03 0.03 0.03 0.02 0.03 0.02 0.02 0.03 0.03 0.03 0.04 0.04
0.00 0.01 0.01 0.01 0.02 0.02 0.02 0.02 0.03 0.03 0.03 0.02 0.04 0.05 0.04 0.03 0.02 0.01 0.01 0.02 0.02 0.02 0.02 0.01 0.02 0.02 0.02 0.02 0.01 0.02 0.03 0.03 0.03 0.03 0.03 0.04 0.04 0.03 0.04 0.04 0.04 0.04 0.04
0.00 0.00 0.01 0.01 0.01 0.01 0.02 0.03 0.03 0.03 0.03 0.02 0.03 0.05 0.07 0.06 0.04 0.02 0.02 0.02 0.02 0.02 0.02 0.01 0.01 0.01 0.01 0.02 0.01 0.01 0.00 0.01 0.02 0.02 0.05 0.09 0.07 0.06 0.05 0.04 0.04 0.04 0.05
0.00 0.00 0.01 0.01 0.01 0.01 0.02 0.02 0.03 0.04 0.04 0.03 0.02 0.03 0.04 0.06 0.04 0.04 0.03 0.02 0.03 0.03 0.03 0.02 0.02 0.01 0.01 0.01 0.01 0.00 0.00 0.00 0.01 0.02 0.04 0.08 0.08 0.07 0.07 0.05 0.04 0.03 0.04
0.01 0.01 0.01 0.01 0.01 0.01 0.00 0.01 0.02 0.03 0.04 0.04 0.02 0.02 0.02 0.04 0.04 0.04 0.03 0.04 0.03 0.03 0.03 0.02 0.02 0.02 0.01 0.01 0.01 0.01 0.01 0.01 0.01 0.01 0.02 0.05 0.06 0.05 0.05 0.04 0.03 0.04 0.05
0.01 0.01 0.01 0.01 0.01 0.01 0.01 0.01 0.02 0.03 0.04 0.04 0.05 0.03 0.02 0.03 0.04 0.03 0.03 0.02 0.03 0.02 0.02 0.02 0.02 0.01 0.01 0.01 0.01 0.01 0.00 0.01 0.01 0.01 0.02 0.04 0.03 0.02 0.02 0.02 0.02 0.03 0.04
0.02 0.01 0.01 0.01 0.01 0.01 0.01 0.01 0.01 0.01 0.02 0.02 0.04 0.05 0.04 0.03 0.03 0.03 0.03 0.02 0.01 0.01 0.01 0.01 0.01 0.02 0.01 0.01 0.01 0.01 0.00 0.00 0.01 0.02 0.02 0.01 0.01 0.02 0.02 0.02 0.02 0.03 0.04
0.02 0.01 0.01 0.02 0.02 0.01 0.01 0.01 0.01 0.01 0.01 0.02 0.02 0.03 0.04 0.04 0.03 0.02 0.02 0.02 0.02 0.01 0.01 0.02 0.01 0.01 0.01 0.01 0.01 0.01 0.01 0.01 0.00 0.01 0.01 0.01 0.00 0.01 0.01 0.02 0.02 0.02 0.05
0.03 0.02 0.03 0.03 0.02 0.01 0.01 0.01 0.01 0.01 0.01 0.01 0.01 0.02 0.03 0.03 0.02 0.02 0.02 0.02 0.03 0.02 0.02 0.03 0.02 0.01 0.01 0.02 0.02 0.00 0.01 0.00 0.00 0.00 0.00 0.00 0.00 0.00 0.00 0.01 0.01 0.02 0.04
0.02 0.02 0.02 0.02 0.02 0.01 0.02 0.01 0.01 0.01 0.01 0.01 0.01 0.01 0.02 0.02 0.02 0.02 0.02 0.02 0.02 0.02 0.02 0.02 0.02 0.01 0.01 0.02 0.02 0.01 0.02 0.01 0.00 0.00 0.00 0.00 0.00 0.00 0.00 0.00 0.00 0.00 0.01
0.01 0.02 0.02 0.01 0.02 0.02 0.02 0.02 0.02 0.01 0.02 0.02 0.02 0.01 0.01 0.02 0.02 0.01 0.02 0.02 0.02 0.01 0.02 0.02 0.01 0.01 0.00 0.01 0.01 0.02 0.03 0.02 0.01 0.01 0.01 0.00 0.00 0.00 0.00 0.00 0.00 0.00 0.00
0.01 0.01 0.01 0.01 0.02 0.02 0.02 0.02 0.03 0.03 0.02 0.02 0.02 0.02 0.02 0.02 0.02 0.01 0.01 0.02 0.02 0.02 0.02 0.03 0.02 0.01 0.00 0.01 0.01 0.01 0.02 0.03 0.02 0.02 0.01 0.01 0.01 0.01 0.00 0.00 0.00 0.00 0.00
0.01 0.00 0.01 0.01 0.01 0.01 0.02 0.02 0.02 0.03 0.02 0.01 0.02 0.02 0.03 0.03 0.02 0.02 0.01 0.02 0.02 0.02 0.02 0.03 0.03 0.02 0.01 0.01 0.01 0.01 0.01 0.03 0.03 0.02 0.02 0.02 0.02 0.01 0.01 0.01 0.01 0.01 0.00
0.01 0.00 0.00 0.01 0.01 0.02 0.01 0.02 0.03 0.03 0.03 0.03 0.02 0.02 0.03 0.03 0.03 0.02 0.02 0.02 0.02 0.02 0.02 0.03 0.03 0.02 0.02 0.02 0.01 0.01 0.01 0.03 0.03 0.03 0.02 0.02 0.02 0.01 0.01 0.01 0.01 0.01 0.01
0.01 0.01 0.01 0.00 0.01 0.01 0.02 0.02 0.02 0.03 0.03 0.03 0.03 0.02 0.02 0.03 0.03 0.02 0.02 0.03 0.02 0.02 0.02 0.02 0.03 0.02 0.03 0.03 0.01 0.01 0.01 0.02 0.03 0.03 0.02 0.01 0.02 0.02 0.02 0.02 0.02 0.02 0.02
0.01 0.01 0.01 0.01 0.01 0.01 0.02 0.02 0.02 0.03 0.03 0.04 0.05 0.03 0.02 0.03 0.03 0.04 0.04 0.04 0.04 0.03 0.03 0.03 0.02 0.02 0.02 0.02 0.02 0.01 0.02 0.02 0.03 0.04 0.04 0.04 0.02 0.02 0.01 0.01 0.01 0.02 0.02
0.02 0.01 0.01 0.02 0.01 0.01 0.02 0.02 0.02 0.02 0.02 0.03 0.04 0.04 0.03 0.02 0.02 0.02 0.02 0.02 0.02 0.02 0.02 0.03 0.03 0.03 0.03 0.02 0.02 0.02 0.02 0.02 0.02 0.02 0.03 0.05 0.05 0.03 0.01 0.01 0.01 0.01 0.01
0.03 0.02 0.01 0.02 0.02 0.01 0.02 0.02 0.02 0.02 0.02 0.02 0.02 0.03 0.03 0.02 0.02 0.02 0.02 0.02 0.01 0.01 0.01 0.02 0.03 0.03 0.02 0.02 0.02 0.02 0.02 0.02 0.03 0.02 0.03 0.03 0.06 0.05 0.01 0.01 0.02 0.01 0.01
0.04 0.03 0.02 0.02 0.02 0.02 0.02 0.02 0.02 0.02 0.02 0.02 0.02 0.02 0.02 0.02 0.02 0.02 0.02 0.03 0.02 0.02 0.01 0.01 0.02 0.02 0.02 0.02 0.02 0.02 0.01 0.02 0.03 0.03 0.03 0.03 0.04 0.05 0.03 0.01 0.01 0.01 0.00
0.06 0.06 0.05 0.04 0.03 0.02 0.02 0.02 0.02 0.02 0.03 0.03 0.03 0.02 0.01 0.01 0.01 0.02 0.02 0.02 0.02 0.02 0.01 0.01 0.02 0.01 0.01 0.02 0.02 0.02 0.01 0.01 0.01 0.02 0.03 0.04 0.03 0.05 0.04 0.02 0.01 0.00 0.00
MSLP
1014.11 1014.35 1014.48 1014.51 1014.46 1014.40 1014.34 1014.33 1014.37 1014.44 1014.53 1014.60 1014.65 1014.67 1014.67 1014.68 1014.72 1014.82 1014.95 1015.11 1015.28 1015.40 1015.46 1015.44 1015.33 1015.16 1014.95 1014.73 1014.53 1014.37 1014.23 1014.11 1013.98 1013.84 1013.67 1013.46 1013.22 1012.95 1012.64 1012.30 1011.93 1011.51 1011.04
1014.13 1014.36 1014.49 1014.52 1014.50 1014.46 1014.43 1014.44 1014.49 1014.57 1014.66 1014.72 1014.75 1014.74 1014.70 1014.67 1014.66 1014.71 1014.80 1014.94 1015.08 1015.21 1015.29 1015.30 1015.23 1015.09 1014.91 1014.72 1014.52 1014.35 1014.20 1014.06 1013.92 1013.77 1013.59 1013.38 1013.13 1012.85 1012.53 1012.18 1011.78 1011.34 1010.85
1014.13 1014.33 1014.45 1014.50 1014.51 1014.51 1014.52 1014.56 1014.63 1014.72 1014.79 1014.83 1014.83 1014.77 1014.68 1014.59 1014.51 1014.49 1014.52 1014.60 1014.72 1014.83 1014.92 1014.96 1014.94 1014.86 1014.73 1014.59 1014.43 1014.28 1014.14 1014.00 1013.85 1013.68 1013.48 1013.24 1012.97 1012.66 1012.33 1011.96 1011.57 1011.14 1010.66
1014.15 1014.32 1014.43 1014.49 1014.53 1014.58 1014.63 1014.71 1014.80 1014.90 1014.96 1014.97 1014.92 1014.81 1014.65 1014.48 1014.33 1014.22 1014.17 1014.19 1014.24 1014.32 1014.40 1014.46 1014.48 1014.46 1014.41 1014.34 1014.26 1014.16 1014.06 1013.93 1013.77 1013.57 1013.33 1013.05 1012.74 1012.40 1012.04 1011.67 1011.29 1010.89 1010.45
1014.22 1014.34 1014.44 1014.52 1014.60 1014.69 1014.79 1014.91 1015.03 1015.12 1015.17 1015.15 1015.06 1014.89 1014.67 1014.43 1014.20 1014.00 1013.86 1013.78 1013.76 1013.78 1013.82 1013.88 1013.92 1013.96 1013.99 1014.00 1014.00 1013.99 1013.94 1013.84 1013.68 1013.46 1013.18 1012.84 1012.47 1012.09 1011.70 1011.32 1010.96 1010.59 1010.20
1014.32 1014.40 1014.48 1014.58 1014.69 1014.83 1014.98 1015.13 1015.27 1015.37 1015.41 1015.37 1015.24 1015.04 1014.77 1014.47 1014.17 1013.89 1013.66 1013.48 1013.36 1013.30 1013.28 1013.30 1013.34 1013.41 1013.50 1013.60 1013.69 1013.76 1013.78 1013.73 1013.59 1013.36 1013.04 1012.65 1012.22 1011.78 1011.36 1010.97 1010.61 1010.26 1009.90
1014.41 1014.44 1014.52 1014.63 1014.77 1014.94 1015.13 1015.32 1015.48 1015.59 1015.63 1015.58 1015.44 1015.23 1014.94 1014.62 1014.28 1013.94 1013.63 1013.36 1013.14 1012.97 1012.85 1012.80 1012.80 1012.87 1012.98 1013.14 1013.31 1013.46 1013.56 1013.58 1013.47 1013.25 1012.92 1012.49 1012.02 1011.54 1011.08 1010.67 1010.29 1009.94 1009.57
1014.41 1014.42 1014.48 1014.59 1014.76 1014.96 1015.18 1015.39 1015.57 1015.70 1015.75 1015.72 1015.60 1015.40 1015.14 1014.84 1014.49 1014.13 1013.77 1013.42 1013.10 1012.81 1012.58 1012.41 1012.34 1012.36 1012.46 1012.65 1012.87 1013.09 1013.27 1013.36 1013.31 1013.12 1012.80 1012.37 1011.88 1011.37 1010.89 1010.45 1010.05 1009.67 1009.24
1014.28 1014.25 1014.29 1014.41 1014.58 1014.80 1015.04 1015.27 1015.47 1015.61 1015.68 1015.69 1015.62 1015.48 1015.29 1015.04 1014.75 1014.40 1014.03 1013.63 1013.21 1012.81 1012.45 1012.16 1011.96 1011.90 1011.95 1012.12 1012.36 1012.63 1012.87 1013.03 1013.05 1012.92 1012.65 1012.26 1011.78 1011.28 1010.79 1010.34 1009.91 1009.47 1008.96
1013.96 1013.91 1013.93 1014.04 1014.21 1014.43 1014.67 1014.90 1015.10 1015.26 1015.36 1015.42 1015.42 1015.37 1015.28 1015.13 1014.92 1014.64 1014.29 1013.87 1013.40 1012.90 1012.42 1011.99 1011.67 1011.48 1011.44 1011.55 1011.77 1012.06 1012.34 1012.56 1012.66 1012.61 1012.41 1012.09 1011.68 1011.22 1010.76 1010.30 1009.85 1009.35 1008.75
1013.51 1013.43 1013.42 1013.51 1013.66 1013.85 1014.07 1014.29 1014.48 1014.64 1014.77 1014.88 1014.95 1015.00 1015.02 1015.00 1014.90 1014.72 1014.44 1014.04 1013.55 1012.99 1012.41 1011.87 1011.41 1011.09 1010.94 1010.96 1011.13 1011.39 1011.68 1011.94 1012.10 1012.14 1012.04 1011.81 1011.49 1011.11 1010.71 1010.29 1009.84 1009.31 1008.63
1013.00 1012.88 1012.84 1012.89 1013.00 1013.15 1013.32 1013.50 1013.66 1013.81 1013.95 1014.09 1014.23 1014.37 1014.50 1014.59 1014.63 1014.56 1014.37 1014.03 1013.57 1012.99 1012.36 1011.73 1011.17 1010.74 1010.47 1010.39 1010.47 1010.67 1010.93 1011.20 1011.40 1011.51 1011.50 1011.37 1011.17 1010.90 1010.59 1010.24 1009.83 1009.29 1008.57
1012.55 1012.39 1012.31 1012.30 1012.35 1012.44 1012.54 1012.66 1012.77 1012.88 1012.99 1013.13 1013.31 1013.50 1013.72 1013.92 1014.06 1014.11 1014.03 1013.78 1013.38 1012.84 1012.21 1011.55 1010.93 1010.42 1010.05 1009.87 1009.84 1009.96 1010.16 1010.40 1010.61 1010.75 1010.81 1010.78 1010.68 1010.53 1010.34 1010.09 1009.75 1009.27 1008.57
1012.27 1012.07 1011.94 1011.87 1011.84 1011.85 1011.88 1011.90 1011.93 1011.97 1012.03 1012.14 1012.30 1012.51 1012.76 1013.02 1013.24 1013.39 1013.40 1013.27 1012.96 1012.50 1011.93 1011.30 1010.68 1010.14 1009.71 1009.44 1009.33 1009.35 1009.47 1009.64 1009.81 1009.95 1010.03 1010.07 1010.06 1010.02 1009.94 1009.80 1009.58 1009.19 1008.58
1012.25 1012.02 1011.83 1011.69 1011.59 1011.51 1011.44 1011.36 1011.29 1011.23 1011.21 1011.23 1011.33 1011.49 1011.72 1011.99 1012.24 1012.44 1012.54 1012.50 1012.31 1011.97 1011.50 1010.96 1010.40 1009.89 1009.45 1009.14 1008.96 1008.89 1008.91 1008.99 1009.09 1009.18 1009.26 1009.31 1009.36 1009.39 1009.41 1009.39 1009.29 1009.03 1008.55
1012.52 1012.26 1012.02 1011.82 1011.64 1011.46 1011.29 1011.11 1010.93 1010.76 1010.61 1010.53 1010.52 1010.58 1010.73 1010.93 1011.16 1011.36 1011.50 1011.54 1011.46 1011.24 1010.92 1010.51 1010.07 1009.63 1009.25 1008.94 1008.72 1008.59 1008.52 1008.51 1008.52 1008.54 1008.56 1008.60 1008.65 1008.72 1008.81 1008.88 1008.90 1008.79 1008.47
1013.03 1012.73 1012.46 1012.20 1011.95 1011.70 1011.43 1011.16 1010.87 1010.57 1010.31 1010.09 1009.93 1009.86 1009.87 1009.96 1010.09 1010.24 1010.38 1010.45 1010.44 1010.35 1010.16 1009.91 1009.61 1009.31 1009.02 1008.77 1008.56 1008.40 1008.28 1008.19 1008.11 1008.05 1008.00 1007.99 1008.01 1008.09 1008.20 1008.34 1008.45 1008.46 1008.31
1013.64 1013.33 1013.02 1012.72 1012.41 1012.10 1011.77 1011.41 1011.03 1010.63 1010.25 1009.89 1009.59 1009.35 1009.20 1009.13 1009.13 1009.17 1009.24 1009.30 1009.33 1009.31 1009.24 1009.13 1008.99 1008.83 1008.67 1008.51 1008.36 1008.23 1008.09 1007.96 1007.83 1007.70 1007.59 1007.52 1007.50 1007.54 1007.65 1007.81 1007.97 1008.08 1008.07
1014.23 1013.89 1013.56 1013.23 1012.89 1012.53 1012.15 1011.74 1011.30 1010.83 1010.35 1009.88 1009.44 1009.05 1008.72 1008.48 1008.31 1008.21 1008.17 1008.16 1008.17 1008.18 1008.18 1008.18 1008.16 1008.14 1008.10 1008.06 1008.00 1007.93 1007.83 1007.71 1007.57 1007.41 1007.27 1007.15 1007.09 1007.10 1007.19 1007.34 1007.52 1007.68 1007.77
1014.64 1014.30 1013.94 1013.59 1013.23 1012.86 1012.46 1012.03 1011.56 1011.05 1010.51 1009.96 1009.41 1008.89 1008.42 1008.00 1007.67 1007.40 1007.22 1007.10 1007.03 1007.01 1007.02 1007.07 1007.12 1007.20 1007.27 1007.34 1007.38 1007.40 1007.38 1007.32 1007.22 1007.09 1006.96 1006.84 1006.77 1006.75 1006.81 1006.93 1007.10 1007.29 1007.43
1014.82 1014.45 1014.09 1013.73 1013.36 1013.00 1012.60 1012.18 1011.72 1011.20 1010.64 1010.05 1009.44 1008.83 1008.24 1007.69 1007.20 1006.78 1006.44 1006.17 1005.99 1005.88 1005.84 1005.86 1005.93 1006.04 1006.18 1006.32 1006.46 1006.58 1006.66 1006.70 1006.69 1006.65 1006.58 1006.51 1006.46 1006.44 1006.48 1006.58 1006.73 1006.91 1007.07
1014.75 1014.37 1014.00 1013.63 1013.28 1012.92 1012.55 1012.15 1011.72 1011.23 1010.68 1010.09 1009.46 1008.81 1008.15 1007.50 1006.89 1006.34 1005.85 1005.44 1005.12 1004.88 1004.73 1004.67 1004.68 1004.77 1004.90 1005.08 1005.28 1005.47 1005.66 1005.81 1005.93 1006.01 1006.06 1006.08 1006.10 1006.13 1006.18 1006.27 1006.40 1006.56 1006.72
1014.51 1014.12 1013.74 1013.38 1013.04 1012.70 1012.36 1011.99 1011.58 1011.13 1010.62 1010.05 1009.43 1008.77 1008.08 1007.39 1006.71 1006.06 1005.45 1004.92 1004.45 1004.07 1003.79 1003.60 1003.50 1003.50 1003.57 1003.73 1003.93 1004.18 1004.44 1004.71 1004.96 1005.18 1005.37 1005.52 1005.64 1005.75 1005.86 1005.97 1006.09 1006.24 1006.39
1014.22 1013.83 1013.46 1013.11 1012.78 1012.46 1012.13 1011.77 1011.39 1010.95 1010.46 1009.92 1009.32 1008.67 1007.99 1007.28 1006.57 1005.87 1005.20 1004.57 1003.99 1003.48 1003.06 1002.72 1002.49 1002.36 1002.33 1002.40 1002.57 1002.82 1003.12 1003.47 1003.83 1004.19 1004.52 1004.82 1005.08 1005.29 1005.48 1005.63 1005.78 1005.92 1006.07
1014.03 1013.65 1013.30 1012.97 1012.64 1012.32 1011.98 1011.61 1011.21 1010.76 1010.26 1009.71 1009.11 1008.47 1007.80 1007.10 1006.40 1005.68 1004.99 1004.31 1003.66 1003.07 1002.53 1002.07 1001.69 1001.43 1001.27 1001.24 1001.33 1001.53 1001.83 1002.21 1002.65 1003.11 1003.57 1004.01 1004.40 1004.73 1005.01 1005.24 1005.43 1005.60 1005.76
1014.05 1013.71 1013.38 1013.06 1012.73 1012.38 1012.00 1011.57 1011.10 1010.59 1010.02 1009.42 1008.78 1008.12 1007.44 1006.75 1006.05 1005.36 1004.67 1004.00 1003.34 1002.70 1002.10 1001.56 1001.08 1000.70 1000.43 1000.28 1000.27 1000.40 1000.65 1001.03 1001.50 1002.02 1002.57 1003.12 1003.62 1004.07 1004.45 1004.77 1005.02 1005.24 1005.43
Thickness
5732 5732 5731 5730 5730 5730 5730 5731 5731 5731 5730 5730 5730 5729 5728 5728 5726 5725 5724 5724 5724 5725 5725 5724 5724 5723 5724 5724 5724 5724 5724 5724 5723 5723 5723 5723 5723 5723 5723 5722 5722 5721 5721
5730 5728 5727 5727 5727 5727 5727 5727 5727 5726 5725 5725 5724 5724 5724 5723 5722 5721 5720 5719 5719 5720 5720 5719 5719 5719 5719 5719 5719 5719 5719 5719 5719 5719 5719 5719 5719 5719 5718 5718 5717 5717 5717
5727 5726 5724 5723 5723 5723 5723 5723 5723 5722 5721 5720 5719 5719 5719 5719 5718 5718 5717 5716 5715 5715 5714 5714 5714 5714 5714 5714 5714 5714 5714 5714 5714 5714 5714 5714 5714 5714 5714 5713 5713 5713 5713
5723 5722 5721 5720 5720 5719 5719 5718 5717 5716 5715 5714 5713 5713 5714 5714 5714 5714 5714 5713 5712 5711 5710 5709 5709 5709 5709 5709 5710 5710 5710 5710 5710 5710 5710 5710 5709 5709 5709 5709 5709 5709 5709
5720 5719 5717 5717 5717 5716 5715 5714 5712 5711 5709 5708 5708 5708 5709 5709 5710 5710 5710 5710 5709 5707 5706 5705 5704 5704 5704 5705 5705 5705 5705 5705 5705 5705 5705 5705 5705 5705 5705 5705 5705 5705 5705
5717 5715 5714 5714 5713 5711 5710 5709 5707 5706 5705 5705 5705 5704 5705 5705 5706 5706 5706 5705 5705 5704 5703 5701 5700 5700 5700 5700 5700 5701 5700 5700 5700 5700 5700 5700 5700 5700 5700 5700 5700 5700 5700
5713 5712 5711 5710 5709 5707 5706 5705 5703 5701 5700 5701 5698 5696 5698 5701 5701 5701 5701 5700 5700 5700 5699 5698 5697 5697 5696 5695 5695 5695 5696 5696 5695 5695 5696 5695 5695 5695 5695 5695 5695 5695 5695
5711 5710 5709 5707 5706 5703 5702 5701 5700 5696 5696 5697 5694 5689 5685 5687 5692 5697 5697 5696 5696 5696 5696 5695 5694 5693 5692 5691 5690 5690 5690 5690 5690 5690 5691 5691 5690 5690 5690 5690 5690 5691 5690
5708 5707 5706 5705 5703 5701 5699 5698 5697 5694 5690 5692 5693 5688 5681 5678 5682 5688 5691 5692 5691 5691 5691 5691 5691 5690 5689 5687 5686 5685 5685 5685 5685 5685 5685 5686 5686 5685 5685 5685 5685 5685 5685
5705 5704 5703 5702 5701 5699 5697 5696 5695 5693 5690 5687 5689 5690 5689 5686 5679 5676 5681 5685 5687 5687 5687 5687 5687 5686 5684 5683 5681 5680 5680 5679 5680 5680 5680 5680 5680 5680 5680 5680 5680 5680 5680
5702 5701 5700 5699 5698 5696 5695 5694 5692 5691 5689 5686 5685 5685 5685 5684 5683 5676 5672 5676 5679 5682 5683 5683 5682 5681 5680 5678 5676 5675 5674 5674 5674 5674 5674 5674 5675 5674 5674 5674 5674 5674 5674
5698 5698 5697 5696 5694 5693 5692 5691 5690 5688 5687 5685 5684 5683 5681 5678 5677 5675 5671 5670 5671 5675 5678 5678 5677 5676 5675 5673 5672 5671 5670 5669 5668 5668 5668 5668 5668 5668 5668 5669 5669 5669 5668
5693 5693 5694 5692 5691 5690 5689 5688 5686 5685 5684 5682 5681 5681 5680 5679 5679 5676 5671 5668 5668 5670 5672 5673 5673 5672 5671 5669 5667 5666 5665 5664 5663 5663 5663 5662 5662 5662 5662 5662 5662 5662 5662
5691 5691 5690 5689 5688 5687 5686 5684 5683 5681 5681 5679 5679 5678 5677 5676 5676 5674 5671 5666 5662 5662 5664 5665 5667 5667 5667 5665 5663 5662 5660 5659 5659 5658 5657 5657 5656 5656 5656 5656 5656 5656 5656
5689 5687 5686 5685 5684 5683 5682 5681 5679 5678 5677 5676 5675 5675 5673 5673 5673 5672 5671 5667 5661 5655 5655 5659 5660 5662 5662 5660 5659 5657 5656 5655 5654 5653 5652 5651 5651 5650 5650 5650 5650 5650 5649
5685 5683 5681 5681 5680 5679 5678 5676 5675 5674 5673 5673 5672 5671 5670 5670 5669 5668 5667 5665 5662 5657 5653 5656 5656 5657 5657 5656 5654 5653 5651 5650 5649 5648 5647 5646 5645 5645 5645 5644 5644 5643 5643
5680 5678 5676 5675 5674 5673 5673 5671 5670 5670 5669 5668 5668 5666 5665 5666 5664 5663 5662 5660 5658 5656 5650 5651 5653 5653 5652 5650 5649 5647 5646 5645 5644 5643 5642 5641 5640 5640 5639 5639 5638 5637 5637
5675 5673 5671 5670 5669 5668 5667 5666 5664 5664 5663 5663 5663 5662 5661 5661 5659 5658 5656 5655 5653 5652 5648 5645 5645 5646 5646 5645 5644 5642 5641 5639 5638 5637 5637 5636 5635 5634 5633 5633 5632 5632 5631
5670 5668 5667 5664 5663 5662 5661 5660 5659 5659 5658 5658 5658 5657 5657 5656 5654 5653 5651 5649 5648 5648 5646 5642 5640 5640 5640 5640 5638 5637 5636 5634 5633 5632 5631 5630 5629 5628 5628 5627 5627 5626 5626
5665 5663 5661 5660 5658 5657 5656 5655 5654 5653 5653 5653 5653 5653 5652 5651 5650 5648 5646 5644 5643 5641 5639 5637 5634 5634 5633 5633 5631 5629 5627 5627 5627 5627 5625 5624 5623 5623 5622 5621 5621 5620 5620
5660 5658 5656 5654 5652 5651 5650 5648 5648 5647 5646 5646 5646 5647 5647 5647 5646 5644 5642 5639 5637 5634 5631 5629 5627 5626 5625 5624 5623 5623 5620 5620 5620 5620 5619 5618 5617 5617 5616 5615 5615 5614 5614
5653 5652 5650 5648 5646 5645 5644 5643 5641 5640 5640 5639 5639 5639 5640 5641 5640 5639 5638 5636 5633 5629 5626 5624 5622 5620 5620 5619 5618 5617 5614 5612 5610 5614 5612 5612 5612 5611 5611 5610 5610 5609 5609
5645 5644 5643 5641 5639 5638 5637 5636 5635 5634 5633 5633 5633 5633 5633 5634 5633 5631 5631 5630 5628 5626 5625 5622 5618 5617 5616 5616 5614 5611 5610 5608 5607 5608 5607 5605 5606 5605 5606 5605 5605 5604 5604
5638 5636 5635 5634 5632 5631 5631 5629 5628 5627 5627 5627 5627 5627 5625 5625 5625 5623 5622 5621 5620 5619 5619 5618 5617 5616 5615 5614 5611 5609 5608 5606 5605 5604 5602 5598 5599 5599 5600 5600 5600 5599 5598
5631 5629 5628 5627 5625 5624 5623 5622 5620 5619 5619 5620 5620 5620 5618 5618 5618 5617 5614 5613 5612 5612 5613 5613 5612 5611 5610 5609 5607 5603 5600 5597 5595 5596 5596 5593 5593 5592 5592 5592 5593 5593 5592
5624 5623 5621 5620 5618 5616 5616 5614 5613 5611 5610 5611 5611 5611 5611 5610 5609 5608 5606 5604 5603 5604 5605 5605 5604 5604 5603 5602 5601 5598 5595 5592 5589 5588 5590 5588 5586 5584 5583 5586 5586 5585 5585